CHH7572 ZUCK-ZJHK

Flight info

Callsign CHH7572
Flight time 1h 46m
Altitude 29100
Route VILUS6Y VILUS W180 ELBAV W181 DUDIT A599 LBN W159 BHY W70 NYB DCT
Aircraft A333/H-SDE3GHIJ2J3J5M1RVWXYZ/LB2D1

Departure

Time 2026-04-24 14:21
Airport Chongqing Jiangbei International Airport (ZUCK)

Arrival

Time 2026-04-24 16:07
Airport Haikou Meilan International Airport (ZJHK)
Time Latitude Longitude Altitude Speed Heading
2026-04-24 13:44 29.71239 106.64852 1358 ft 0 kts 130°
2026-04-24 14:03 29.71244 106.64845 1360 ft 3 kts 129°
2026-04-24 14:03 29.71257 106.64827 1356 ft 3 kts 127°
2026-04-24 14:03 29.71269 106.64809 1357 ft 2 kts 128°
2026-04-24 14:03 29.71278 106.64794 1359 ft 3 kts 106°
2026-04-24 14:04 29.71279 106.64774 1358 ft 3 kts 65°
2026-04-24 14:04 29.71268 106.64755 1358 ft 3 kts 46°
2026-04-24 14:04 29.71260 106.64746 1358 ft 1 kts 41°
2026-04-24 14:04 29.71258 106.64744 1358 ft 0 kts 41°
2026-04-24 14:08 29.71259 106.64745 1358 ft 1 kts 41°
2026-04-24 14:09 29.71292 106.64777 1359 ft 9 kts 35°
2026-04-24 14:09 29.71335 106.64767 1362 ft 6 kts 311°
2026-04-24 14:09 29.71358 106.64714 1362 ft 8 kts 296°
2026-04-24 14:09 29.71409 106.64688 1362 ft 10 kts 12°
2026-04-24 14:10 29.71460 106.64702 1362 ft 12 kts 15°
2026-04-24 14:10 29.71583 106.64743 1361 ft 15 kts 16°
2026-04-24 14:10 29.71687 106.64778 1360 ft 16 kts 18°
2026-04-24 14:10 29.71801 106.64820 1361 ft 18 kts 18°
2026-04-24 14:11 29.71925 106.64861 1360 ft 19 kts 15°
2026-04-24 14:11 29.72056 106.64906 1363 ft 20 kts 17°
2026-04-24 14:11 29.72146 106.65090 1358 ft 16 kts 109°
2026-04-24 14:12 29.72112 106.65222 1358 ft 18 kts 106°
2026-04-24 14:12 29.72074 106.65370 1354 ft 21 kts 107°
2026-04-24 14:12 29.72030 106.65539 1354 ft 23 kts 107°
2026-04-24 14:12 29.71980 106.65726 1347 ft 26 kts 107°
2026-04-24 14:13 29.71930 106.65927 1341 ft 24 kts 101°
2026-04-24 14:13 29.71957 106.66012 1341 ft 11 kts 38°
2026-04-24 14:13 29.72022 106.66039 1342 ft 10 kts 12°
2026-04-24 14:13 29.72096 106.66062 1344 ft 12 kts 16°
2026-04-24 14:14 29.72183 106.66092 1338 ft 14 kts 16°
2026-04-24 14:14 29.72283 106.66126 1338 ft 16 kts 18°
2026-04-24 14:14 29.72531 106.66220 1336 ft 21 kts 18°
2026-04-24 14:15 29.72668 106.66267 1335 ft 23 kts 15°
2026-04-24 14:15 29.72827 106.66318 1334 ft 24 kts 15°
2026-04-24 14:15 29.72989 106.66376 1332 ft 25 kts 17°
2026-04-24 14:15 29.73162 106.66439 1331 ft 27 kts 17°
2026-04-24 14:16 29.73343 106.66496 1329 ft 27 kts 15°
2026-04-24 14:16 29.73525 106.66555 1328 ft 28 kts 16°
2026-04-24 14:16 29.73708 106.66625 1326 ft 28 kts 18°
2026-04-24 14:17 29.74093 106.66752 1323 ft 29 kts 17°
2026-04-24 14:17 29.74290 106.66821 1322 ft 30 kts 17°
2026-04-24 14:17 29.74705 106.66960 1318 ft 30 kts 16°
2026-04-24 14:18 29.74764 106.67028 1317 ft 10 kts 89°
2026-04-24 14:18 29.74743 106.67111 1316 ft 12 kts 110°
2026-04-24 14:18 29.74712 106.67208 1315 ft 14 kts 110°
2026-04-24 14:18 29.74654 106.67253 1315 ft 9 kts 191°
2026-04-24 14:19 29.74629 106.67246 1315 ft 0 kts 195°
2026-04-24 14:20 29.74503 106.67205 1316 ft 43 kts 197°
2026-04-24 14:21 29.74026 106.67041 1322 ft 99 kts 197°
2026-04-24 14:21 29.73179 106.66750 1328 ft 155 kts 197°
2026-04-24 14:21 29.72048 106.66323 1674 ft 186 kts 198°
2026-04-24 14:21 29.70744 106.65817 2146 ft 210 kts 197°
2026-04-24 14:22 29.69283 106.65281 2726 ft 233 kts 197°
2026-04-24 14:22 29.67678 106.64728 3345 ft 244 kts 193°
2026-04-24 14:22 29.64311 106.64646 4370 ft 242 kts 176°
2026-04-24 14:23 29.62628 106.64822 4884 ft 244 kts 173°
2026-04-24 14:23 29.60938 106.65035 5395 ft 245 kts 173°
2026-04-24 14:23 29.59230 106.65240 5909 ft 249 kts 173°
2026-04-24 14:23 29.57524 106.65474 6427 ft 251 kts 168°
2026-04-24 14:24 29.55864 106.66092 6931 ft 252 kts 155°
2026-04-24 14:24 29.54302 106.67029 7435 ft 255 kts 150°
2026-04-24 14:24 29.52752 106.68039 7945 ft 258 kts 149°
2026-04-24 14:24 29.51187 106.69064 8473 ft 261 kts 149°
2026-04-24 14:25 29.50136 106.69749 8820 ft 263 kts 149°
2026-04-24 14:25 29.47985 106.71146 9530 ft 268 kts 150°
2026-04-24 14:25 29.46347 106.72203 10043 ft 274 kts 150°
2026-04-24 14:25 29.44651 106.73296 10308 ft 295 kts 150°
2026-04-24 14:26 29.42783 106.74498 10585 ft 320 kts 150°
2026-04-24 14:26 29.40770 106.75792 10910 ft 342 kts 150°
2026-04-24 14:26 29.38643 106.77159 11438 ft 356 kts 150°
2026-04-24 14:26 29.36453 106.78565 12104 ft 365 kts 150°
2026-04-24 14:27 29.34216 106.80001 12799 ft 372 kts 150°
2026-04-24 14:27 29.31964 106.81440 13499 ft 380 kts 150°
2026-04-24 14:27 29.29640 106.82930 14158 ft 386 kts 150°
2026-04-24 14:27 29.27271 106.84447 14807 ft 393 kts 150°
2026-04-24 14:28 29.24872 106.85986 15497 ft 397 kts 151°
2026-04-24 14:28 29.22452 106.87535 16218 ft 401 kts 151°
2026-04-24 14:28 29.19999 106.89103 16873 ft 406 kts 152°
2026-04-24 14:28 29.17516 106.90689 17544 ft 412 kts 152°
2026-04-24 14:29 29.15002 106.92294 18245 ft 416 kts 152°
2026-04-24 14:29 29.12473 106.93848 18810 ft 420 kts 156°
2026-04-24 14:29 29.09739 106.95030 19324 ft 423 kts 168°
2026-04-24 14:29 29.06843 106.95577 19882 ft 422 kts 180°
2026-04-24 14:30 29.04855 106.95646 20287 ft 423 kts 184°
2026-04-24 14:30 29.00941 106.95602 20994 ft 427 kts 186°
2026-04-24 14:30 28.97960 106.95554 21554 ft 431 kts 186°
2026-04-24 14:30 28.94944 106.95503 22116 ft 435 kts 186°
2026-04-24 14:31 28.91907 106.95455 22645 ft 439 kts 186°
2026-04-24 14:31 28.88837 106.95409 23160 ft 444 kts 187°
2026-04-24 14:31 28.85776 106.95368 23673 ft 447 kts 187°
2026-04-24 14:31 28.82658 106.95331 24137 ft 449 kts 186°
2026-04-24 14:32 28.79528 106.95295 24577 ft 450 kts 186°
2026-04-24 14:32 28.76388 106.95260 25040 ft 453 kts 186°
2026-04-24 14:32 28.73223 106.95222 25495 ft 455 kts 186°
2026-04-24 14:32 28.70091 106.95184 26005 ft 456 kts 186°
2026-04-24 14:33 28.66915 106.95144 26481 ft 458 kts 186°
2026-04-24 14:33 28.63727 106.95106 26894 ft 461 kts 186°
2026-04-24 14:33 28.60511 106.95063 27352 ft 462 kts 186°
2026-04-24 14:33 28.57286 106.95026 27805 ft 464 kts 186°
2026-04-24 14:34 28.54043 106.94990 28214 ft 467 kts 186°
2026-04-24 14:34 28.50782 106.94953 28646 ft 469 kts 186°
2026-04-24 14:34 28.47518 106.94915 29067 ft 471 kts 186°
2026-04-24 14:35 28.41047 106.94841 29176 ft 460 kts 187°
2026-04-24 14:35 28.34708 106.94778 29180 ft 453 kts 187°
2026-04-24 14:36 28.28406 106.94702 29191 ft 453 kts 187°
2026-04-24 14:36 28.22102 106.94688 29192 ft 455 kts 185°
2026-04-24 14:37 28.15812 106.95002 29191 ft 456 kts 183°
2026-04-24 14:37 28.09478 106.95411 29193 ft 456 kts 183°
2026-04-24 14:38 28.03142 106.95792 29202 ft 456 kts 184°
2026-04-24 14:38 27.96817 106.96134 29198 ft 455 kts 184°
2026-04-24 14:39 27.90521 106.96464 29204 ft 456 kts 184°
2026-04-24 14:39 27.84186 106.96802 29204 ft 456 kts 184°
2026-04-24 14:40 27.77846 106.97133 29207 ft 457 kts 184°
2026-04-24 14:40 27.71495 106.97462 29204 ft 457 kts 184°
2026-04-24 14:41 27.65189 106.97798 29207 ft 457 kts 184°
2026-04-24 14:41 27.58846 106.98130 29194 ft 457 kts 184°
2026-04-24 14:42 27.53564 106.98405 29210 ft 457 kts 184°
2026-04-24 14:42 27.46131 106.98794 29206 ft 457 kts 184°
2026-04-24 14:43 27.39813 106.99135 29198 ft 457 kts 184°
2026-04-24 14:43 27.33455 106.99478 29212 ft 457 kts 184°
2026-04-24 14:44 27.27101 106.99817 29220 ft 457 kts 184°
2026-04-24 14:44 27.20738 107.00160 29215 ft 458 kts 184°
2026-04-24 14:45 27.14375 107.00510 29213 ft 458 kts 184°
2026-04-24 14:45 27.08058 107.00853 29206 ft 458 kts 184°
2026-04-24 14:46 27.01694 107.01193 29192 ft 458 kts 184°
2026-04-24 14:46 26.95321 107.01538 29215 ft 459 kts 184°
2026-04-24 14:47 26.90021 107.01804 29221 ft 459 kts 184°
2026-04-24 14:47 26.82606 107.02159 29222 ft 459 kts 184°
2026-04-24 14:48 26.76226 107.02476 29228 ft 459 kts 184°
2026-04-24 14:48 26.69841 107.02812 29237 ft 459 kts 184°
2026-04-24 14:49 26.63496 107.03145 29233 ft 459 kts 184°
2026-04-24 14:49 26.57114 107.03477 29239 ft 459 kts 184°
2026-04-24 14:50 26.50728 107.03804 29216 ft 459 kts 184°
2026-04-24 14:50 26.44349 107.04109 29232 ft 459 kts 184°
2026-04-24 14:51 26.38016 107.04368 29225 ft 458 kts 184°
2026-04-24 14:51 26.31654 107.05229 29233 ft 469 kts 169°
2026-04-24 14:51 26.28605 107.06581 29219 ft 476 kts 156°
2026-04-24 14:52 26.25843 107.08656 29217 ft 483 kts 143°
2026-04-24 14:52 26.20878 107.13744 29213 ft 487 kts 138°
2026-04-24 14:53 26.16134 107.19081 29199 ft 487 kts 137°
2026-04-24 14:53 26.11369 107.24433 29175 ft 487 kts 138°
2026-04-24 14:54 26.06566 107.29735 29205 ft 486 kts 138°
2026-04-24 14:54 26.01747 107.35001 29185 ft 486 kts 139°
2026-04-24 14:55 25.97733 107.39377 29188 ft 486 kts 139°
2026-04-24 14:55 25.92133 107.45480 29188 ft 484 kts 139°
2026-04-24 14:56 25.87320 107.50718 29173 ft 484 kts 139°
2026-04-24 14:56 25.82518 107.55946 29173 ft 484 kts 139°
2026-04-24 14:57 25.77743 107.61136 29167 ft 483 kts 139°
2026-04-24 14:57 25.72941 107.66350 29158 ft 483 kts 139°
2026-04-24 14:58 25.68144 107.71576 29156 ft 483 kts 139°
2026-04-24 14:58 25.63369 107.76807 29155 ft 483 kts 139°
2026-04-24 14:59 25.58620 107.82007 29148 ft 483 kts 139°
2026-04-24 14:59 25.53835 107.87237 29147 ft 483 kts 139°
2026-04-24 15:00 25.49019 107.92424 29127 ft 481 kts 143°
2026-04-24 15:00 25.46328 107.94574 29130 ft 474 kts 155°
2026-04-24 15:00 25.43415 107.96078 29111 ft 464 kts 167°
2026-04-24 15:01 25.37187 107.97472 29116 ft 455 kts 179°
2026-04-24 15:01 25.31656 107.98164 29104 ft 454 kts 181°
2026-04-24 15:02 25.25369 107.98837 29103 ft 454 kts 181°
2026-04-24 15:02 25.19885 107.99472 29103 ft 454 kts 180°
2026-04-24 15:03 25.13646 108.00211 29105 ft 454 kts 180°
2026-04-24 15:03 25.07371 108.00982 29097 ft 453 kts 180°
2026-04-24 15:04 25.01101 108.01750 29087 ft 453 kts 180°
2026-04-24 15:04 24.94839 108.02512 29082 ft 453 kts 180°
2026-04-24 15:05 24.88617 108.03264 29078 ft 453 kts 180°
2026-04-24 15:05 24.82354 108.04019 29058 ft 453 kts 180°
2026-04-24 15:06 24.76111 108.04782 29067 ft 450 kts 180°
2026-04-24 15:06 24.69890 108.05538 29074 ft 449 kts 180°
2026-04-24 15:07 24.63716 108.06283 29070 ft 450 kts 180°
2026-04-24 15:07 24.57500 108.07033 29072 ft 449 kts 180°
2026-04-24 15:08 24.51282 108.07784 29064 ft 449 kts 181°
2026-04-24 15:08 24.45080 108.08540 29078 ft 447 kts 181°
2026-04-24 15:09 24.38948 108.09293 29072 ft 446 kts 181°
2026-04-24 15:09 24.32761 108.10043 29072 ft 448 kts 181°
2026-04-24 15:10 24.26572 108.10787 29089 ft 447 kts 181°
2026-04-24 15:10 24.20389 108.11530 29073 ft 448 kts 181°
2026-04-24 15:11 24.14237 108.12282 29068 ft 448 kts 181°
2026-04-24 15:11 24.08036 108.13036 29066 ft 448 kts 181°
2026-04-24 15:12 24.01835 108.13785 29069 ft 448 kts 181°
2026-04-24 15:12 23.92591 108.15170 29062 ft 457 kts 171°
2026-04-24 15:13 23.89588 108.16402 29053 ft 467 kts 160°
2026-04-24 15:13 23.86806 108.18311 29063 ft 477 kts 147°
2026-04-24 15:13 23.84434 108.20884 29067 ft 486 kts 132°
2026-04-24 15:13 23.82638 108.24038 29061 ft 493 kts 117°
2026-04-24 15:14 23.81553 108.27600 29067 ft 497 kts 102°
2026-04-24 15:14 23.81093 108.31347 29068 ft 499 kts 96°
2026-04-24 15:14 23.80652 108.38877 29058 ft 500 kts 92°
2026-04-24 15:15 23.80329 108.46461 29068 ft 501 kts 93°
2026-04-24 15:15 23.79948 108.54072 29061 ft 503 kts 93°
2026-04-24 15:16 23.79515 108.61701 29062 ft 503 kts 94°
2026-04-24 15:16 23.79068 108.69271 29065 ft 503 kts 94°
2026-04-24 15:17 23.78617 108.76894 29058 ft 503 kts 94°
2026-04-24 15:17 23.78163 108.84530 29057 ft 505 kts 94°
2026-04-24 15:18 23.77703 108.92187 29055 ft 506 kts 94°
2026-04-24 15:18 23.77243 108.99793 29056 ft 506 kts 94°
2026-04-24 15:19 23.76722 109.03579 29055 ft 504 kts 106°
2026-04-24 15:19 23.75561 109.07161 29054 ft 498 kts 119°
2026-04-24 15:19 23.73753 109.10342 29054 ft 490 kts 134°
2026-04-24 15:19 23.71380 109.12951 29058 ft 478 kts 149°
2026-04-24 15:20 23.68612 109.14853 29055 ft 465 kts 163°
2026-04-24 15:20 23.65619 109.16015 29051 ft 450 kts 176°
2026-04-24 15:20 23.59535 109.17078 29046 ft 444 kts 182°
2026-04-24 15:21 23.53410 109.17807 29048 ft 442 kts 183°
2026-04-24 15:21 23.47280 109.18529 29022 ft 443 kts 182°
2026-04-24 15:22 23.41187 109.19306 29044 ft 439 kts 182°
2026-04-24 15:23 23.32125 109.20500 29044 ft 439 kts 182°
2026-04-24 15:23 23.23036 109.21698 29041 ft 439 kts 182°
2026-04-24 15:25 23.08903 109.23552 29043 ft 440 kts 182°
2026-04-24 15:26 22.92737 109.25676 29039 ft 440 kts 182°
2026-04-24 15:27 22.74520 109.28052 29035 ft 442 kts 182°
2026-04-24 15:29 22.56242 109.30460 29042 ft 442 kts 182°
2026-04-24 15:31 22.34876 109.33272 29040 ft 442 kts 182°
2026-04-24 15:33 22.10488 109.36451 29036 ft 442 kts 182°
2026-04-24 15:34 21.95270 109.38429 29033 ft 441 kts 182°
2026-04-24 15:35 21.80046 109.40401 29039 ft 442 kts 181°
2026-04-24 15:36 21.73950 109.41190 29035 ft 442 kts 181°
2026-04-24 15:36 21.64799 109.42373 29037 ft 442 kts 181°
2026-04-24 15:37 21.58713 109.43620 29028 ft 456 kts 168°
2026-04-24 15:37 21.52946 109.46588 29028 ft 467 kts 158°
2026-04-24 15:38 21.47295 109.50071 29033 ft 469 kts 156°
2026-04-24 15:38 21.41672 109.53631 29039 ft 469 kts 156°
2026-04-24 15:39 21.36045 109.57151 29036 ft 468 kts 157°
2026-04-24 15:39 21.30248 109.59883 29038 ft 448 kts 176°
2026-04-24 15:40 21.24128 109.61061 28677 ft 448 kts 179°
2026-04-24 15:40 21.21041 109.61514 28140 ft 448 kts 180°
2026-04-24 15:40 21.17960 109.61936 27594 ft 445 kts 180°
2026-04-24 15:41 21.14895 109.62350 27057 ft 442 kts 180°
2026-04-24 15:41 21.11856 109.62766 26508 ft 439 kts 179°
2026-04-24 15:41 21.08841 109.63187 25971 ft 436 kts 179°
2026-04-24 15:41 21.05841 109.63613 25433 ft 433 kts 179°
2026-04-24 15:42 21.02908 109.64034 24924 ft 430 kts 179°
2026-04-24 15:42 20.99950 109.64462 24392 ft 428 kts 179°
2026-04-24 15:42 20.97006 109.64887 23869 ft 426 kts 179°
2026-04-24 15:42 20.94082 109.65311 23320 ft 423 kts 178°
2026-04-24 15:43 20.91172 109.65733 22691 ft 420 kts 178°
2026-04-24 15:43 20.88279 109.66152 22091 ft 417 kts 178°
2026-04-24 15:43 20.85415 109.66566 21495 ft 415 kts 178°
2026-04-24 15:43 20.82599 109.66972 20923 ft 412 kts 178°
2026-04-24 15:44 20.79770 109.67381 20344 ft 409 kts 177°
2026-04-24 15:44 20.76956 109.67786 19785 ft 407 kts 177°
2026-04-24 15:44 20.74163 109.68189 19221 ft 405 kts 177°
2026-04-24 15:44 20.71377 109.68590 18652 ft 403 kts 176°
2026-04-24 15:45 20.68604 109.68989 18078 ft 400 kts 176°
2026-04-24 15:45 20.65854 109.69385 17418 ft 398 kts 176°
2026-04-24 15:45 20.63120 109.69779 16795 ft 395 kts 176°
2026-04-24 15:45 20.60443 109.70165 16188 ft 392 kts 176°
2026-04-24 15:46 20.57747 109.70553 15589 ft 389 kts 175°
2026-04-24 15:46 20.55072 109.70937 15001 ft 386 kts 175°
2026-04-24 15:46 20.52415 109.71350 14433 ft 386 kts 171°
2026-04-24 15:46 20.49888 109.72311 13861 ft 389 kts 153°
2026-04-24 15:47 20.47656 109.73942 13233 ft 388 kts 143°
2026-04-24 15:47 20.45589 109.75761 12595 ft 384 kts 141°
2026-04-24 15:47 20.43573 109.77606 11986 ft 380 kts 141°
2026-04-24 15:47 20.41582 109.79441 11394 ft 376 kts 141°
2026-04-24 15:48 20.39642 109.81233 10807 ft 373 kts 141°
2026-04-24 15:48 20.37688 109.83037 10224 ft 369 kts 141°
2026-04-24 15:48 20.35756 109.84820 9631 ft 366 kts 141°
2026-04-24 15:48 20.33844 109.86584 9003 ft 362 kts 141°
2026-04-24 15:49 20.31950 109.88331 8405 ft 358 kts 140°
2026-04-24 15:49 20.30093 109.90074 8035 ft 352 kts 140°
2026-04-24 15:49 20.28269 109.91754 7928 ft 340 kts 141°
2026-04-24 15:49 20.26522 109.93352 7914 ft 322 kts 141°
2026-04-24 15:50 20.24897 109.94843 7912 ft 304 kts 141°
2026-04-24 15:50 20.23319 109.96293 7920 ft 297 kts 141°
2026-04-24 15:50 20.21757 109.97727 7898 ft 296 kts 141°
2026-04-24 15:50 20.20193 109.99162 7556 ft 296 kts 140°
2026-04-24 15:51 20.18663 110.00570 7400 ft 285 kts 141°
2026-04-24 15:51 20.17188 110.01927 7258 ft 276 kts 140°
2026-04-24 15:51 20.15747 110.03234 6978 ft 272 kts 144°
2026-04-24 15:51 20.14085 110.04180 6609 ft 269 kts 167°
2026-04-24 15:52 20.12311 110.04268 6478 ft 255 kts 195°
2026-04-24 15:52 20.10808 110.03414 6348 ft 241 kts 226°
2026-04-24 15:52 20.10014 110.01923 6204 ft 230 kts 259°
2026-04-24 15:52 20.10142 110.00274 6057 ft 224 kts 290°
2026-04-24 15:53 20.11061 109.98954 5767 ft 225 kts 319°
2026-04-24 15:53 20.12303 109.97963 5578 ft 221 kts 322°
2026-04-24 15:53 20.13556 109.97031 5380 ft 219 kts 323°
2026-04-24 15:53 20.14797 109.96092 5127 ft 218 kts 322°
2026-04-24 15:54 20.16003 109.95117 4880 ft 217 kts 320°
2026-04-24 15:54 20.17279 109.94292 4629 ft 220 kts 338°
2026-04-24 15:54 20.18784 109.94083 4377 ft 221 kts
2026-04-24 15:54 20.20166 109.94748 4131 ft 222 kts 41°
2026-04-24 15:55 20.20975 109.96116 3898 ft 220 kts 74°
2026-04-24 15:55 20.20971 109.97725 3657 ft 220 kts 107°
2026-04-24 15:55 20.20187 109.99107 3406 ft 220 kts 133°
2026-04-24 15:55 20.19072 110.00217 3200 ft 219 kts 139°
2026-04-24 15:56 20.17916 110.01273 2993 ft 219 kts 139°
2026-04-24 15:56 20.16774 110.02325 2951 ft 219 kts 138°
2026-04-24 15:56 20.15624 110.03384 2950 ft 218 kts 138°
2026-04-24 15:56 20.14467 110.04436 2948 ft 219 kts 139°
2026-04-24 15:57 20.13309 110.05492 2951 ft 219 kts 138°
2026-04-24 15:57 20.12151 110.06550 2948 ft 220 kts 137°
2026-04-24 15:57 20.10998 110.07607 2951 ft 218 kts 138°
2026-04-24 15:57 20.09845 110.08667 2963 ft 219 kts 139°
2026-04-24 15:58 20.08710 110.09708 2951 ft 218 kts 139°
2026-04-24 15:58 20.07566 110.10759 2951 ft 218 kts 137°
2026-04-24 15:58 20.06416 110.11817 2950 ft 218 kts 138°
2026-04-24 15:58 20.05263 110.12865 2969 ft 218 kts 140°
2026-04-24 15:59 20.03944 110.13638 2954 ft 216 kts 167°
2026-04-24 15:59 20.02471 110.13817 2961 ft 211 kts 180°
2026-04-24 15:59 20.01010 110.13825 2938 ft 210 kts 181°
2026-04-24 15:59 19.99550 110.13806 2953 ft 210 kts 182°
2026-04-24 16:00 19.98111 110.13795 2956 ft 210 kts 181°
2026-04-24 16:00 19.96638 110.13790 2956 ft 209 kts 181°
2026-04-24 16:00 19.95182 110.13822 2946 ft 210 kts 174°
2026-04-24 16:00 19.93836 110.14325 2945 ft 210 kts 146°
2026-04-24 16:01 19.92985 110.15508 2950 ft 199 kts 110°
2026-04-24 16:01 19.92876 110.16953 2965 ft 196 kts 84°
2026-04-24 16:01 19.93117 110.18363 2959 ft 196 kts 79°
2026-04-24 16:01 19.93412 110.19730 2951 ft 183 kts 77°
2026-04-24 16:02 19.93694 110.21028 2962 ft 179 kts 78°
2026-04-24 16:02 19.93964 110.22312 2967 ft 178 kts 78°
2026-04-24 16:02 19.94228 110.23598 2972 ft 177 kts 79°
2026-04-24 16:02 19.94487 110.24870 2968 ft 176 kts 79°
2026-04-24 16:03 19.94744 110.26143 2972 ft 176 kts 79°
2026-04-24 16:03 19.94996 110.27397 2972 ft 175 kts 79°
2026-04-24 16:03 19.95234 110.28664 2960 ft 175 kts 85°
2026-04-24 16:03 19.95290 110.29948 2802 ft 173 kts 90°
2026-04-24 16:04 19.95316 110.31224 2561 ft 173 kts 88°
2026-04-24 16:04 19.95334 110.32497 2328 ft 172 kts 88°
2026-04-24 16:04 19.95338 110.33759 2096 ft 169 kts 88°
2026-04-24 16:04 19.95342 110.34999 1889 ft 166 kts 85°
2026-04-24 16:05 19.95348 110.37269 1478 ft 140 kts 83°
2026-04-24 16:05 19.95353 110.38262 1306 ft 135 kts 85°
2026-04-24 16:06 19.95359 110.40267 959 ft 133 kts 83°
2026-04-24 16:06 19.95362 110.41228 783 ft 128 kts 85°
2026-04-24 16:06 19.95365 110.43105 397 ft 127 kts 85°
2026-04-24 16:07 19.95363 110.44042 262 ft 126 kts 88°
2026-04-24 16:07 19.95374 110.44973 100 ft 126 kts 87°
2026-04-24 16:07 19.95376 110.46329 59 ft 40 kts 89°
2026-04-24 16:08 19.95380 110.46610 61 ft 36 kts 90°
2026-04-24 16:08 19.95355 110.46971 58 ft 21 kts 107°
2026-04-24 16:09 19.95272 110.47144 60 ft 11 kts 134°
2026-04-24 16:09 19.95231 110.47136 57 ft 7 kts 220°
2026-04-24 16:09 19.95214 110.47103 58 ft 6 kts 252°
2026-04-24 16:09 19.95207 110.47054 62 ft 8 kts 269°
2026-04-24 16:10 19.95206 110.46888 63 ft 0 kts 270°
2026-04-24 16:12 19.95206 110.46887 63 ft 1 kts 270°
2026-04-24 16:12 19.95206 110.46744 62 ft 2 kts 270°
2026-04-24 16:13 19.95206 110.46737 61 ft 1 kts 270°
2026-04-24 16:13 19.95206 110.46591 62 ft 14 kts 270°
2026-04-24 16:14 19.95207 110.46341 61 ft 19 kts 270°
2026-04-24 16:14 19.95204 110.46190 61 ft 22 kts 269°
2026-04-24 16:14 19.95199 110.45991 60 ft 10 kts 255°
2026-04-24 16:15 19.95172 110.45967 57 ft 8 kts 197°
2026-04-24 16:15 19.95121 110.45811 55 ft 14 kts 269°
2026-04-24 16:16 19.95113 110.45565 55 ft 17 kts 254°
2026-04-24 16:16 19.95068 110.45491 52 ft 10 kts 257°
2026-04-24 16:17 19.95030 110.45240 55 ft 4 kts 199°
2026-04-24 16:17 19.94915 110.45242 55 ft 12 kts 178°
2026-04-24 16:18 19.94768 110.45305 55 ft 12 kts 135°
2026-04-24 16:18 19.94666 110.45342 63 ft 6 kts 141°
2026-04-24 16:18 19.94647 110.45360 56 ft 3 kts 136°
2026-04-24 16:19 19.94630 110.45378 59 ft 0 kts 135°